Regional Weather Roundup
Issued by NWS Green Bay, WI

Home | Current Version | Previous Version | Text Only | Print | Product List | Glossary On
Versions: 1 2 3 4 5 6 7 8 9 10 11 12 13 14 15 16 17 18 19 20 21 22 23 24 25 26 27 28 29 30 31 32 33 34 35 36 37 38 39 40 41 42 43 44 45 46 47 48 49 50
000
ASUS43 KGRB 240611
RWRGRB

NORTH-CENTRAL AND NORTHEAST WISCONSIN REGIONAL WEATHER ROUNDUP
NATIONAL WEATHER SERVICE GREEN BAY WI
100 AM CDT TUE MAY 24 2016

WIZ005-009-010>012-018-019-240700-
NORTH CENTRAL WISCONSIN

CITY           SKY/WX    TMP DP  RH WIND       PRES   REMARKS
IRONWOOD       CLOUDY    61  59  94 W5        29.84R
MANITOWISH WTR CLOUDY    61  61 100 CALM      29.86S
ARBOR VITAE    CLOUDY    64  60  87 CALM      29.86F
EAGLE RIVER      N/A     65  44  46 CALM      29.86S
LAND O LAKES   CLOUDY    62  56  79 CALM      29.87S
RHINELANDER    CLOUDY    68  47  46 SW6       29.88S
PHILLIPS       CLOUDY    66  60  81 SW7       29.86S
ANTIGO         CLOUDY    58  47  65 CALM      29.90S
TOMAHAWK       MOCLDY    62  49  62 CALM      29.88S
MERRILL        CLOUDY    65  49  56 CALM      29.88S
$$

WIZ013-073-240700-
NORTHEAST WISCONSIN

CITY           SKY/WX    TMP DP  RH WIND       PRES   REMARKS
IRON MOUNTAIN  CLOUDY    62  47  57 S6        29.85S
MARINETTE      PTCLDY    63  42  46 SW7       29.88S
OCONTO         CLEAR     58  48  71 CALM      29.87S
$$

WIZ017-030-035>037-045-240700-
CENTRAL WISCONSIN

CITY           SKY/WX    TMP DP  RH WIND       PRES   REMARKS
MEDFORD        CLOUDY    66  55  67 SW6       29.88S
WAUSAU         MOCLDY    64  51  62 E3        29.87S
MOSINEE        CLOUDY    63  46  55 SW3       29.89S
MARSHFIELD     CLOUDY    64  51  62 CALM      29.87F
WISC RAPIDS    PTCLDY    61  46  57 CALM      29.89R
STEVENS POINT  CLEAR     60  46  59 CALM      29.89R
WAUPACA        PTCLDY    61  49  66 CALM      29.88S
SHAWANO        CLEAR     65  48  52 CALM      29.87S
CLINTONVILLE   CLEAR     59  46  63 CALM      29.87S
WAUTOMA        CLOUDY    56  51  84 CALM      29.89R
$$

WIZ038-039-048-051-240700-
FOX VALLEY

CITY           SKY/WX    TMP DP  RH WIND       PRES   REMARKS
NWS GREEN BAY  PTCLDY    63  42  46 S8        29.88S
APPLETON       CLEAR     61  45  55 S7        29.88R
OSHKOSH        CLEAR     59  46  62 S9        29.89R
FOND DU LAC    CLEAR     60  44  55 S6        29.90R
$$

WIZ022-050-052-240700-
EAST CENTRAL WISCONSIN

CITY           SKY/WX    TMP DP  RH WIND       PRES   REMARKS
EPHRAIM        FAIR      62  37  38 S8        29.88S
STURGEON BAY   NOT AVBL
MANITOWOC      PTCLDY    61  38  42 S10       29.91S
SHEBOYGAN      CLOUDY    55  37  50 CALM      29.92R
$$

LMZ563-521-522-541>543-240700-
LAKESHORE

STATION/POSITION TIME  TEMP    WIND        PRES    VSBY  WAVE
                       AIR SEA DIR/SP/G                  HT/PER
                 (UTC) (F)     (DEG/KT/KT) (MB)    (MI)  (FT/S)
SHEBOYGAN LKSHOR 0600   61     180/ 16/ 17 1013.4R
KEWAUNEE LKSHORE 0500   54     170/  7/  8 1012.0R
ALGOMA MARINA    0517          220/ 10/ 11   N/A
NORTHPORT PIER   0500   60     160/  7/ 11 1011.9S
N MID LAKE BUOY  0550   50 44  190/ 12/ 12 1012.0S         2/ 5
SISTER BAY LKSHO 0519   63     180/ 16/ 20   N/A
CHAMBERS ISLAND  0500   63     170/  6/ 11 1011.9R
MENOMINEE LKSHOR 0500   64     180/  7/  9 1010.6R
$$




USA.gov is the U.S. government's official web portal to all federal, state and local government web resources and services.